Location: Holcomb Observatory
(44.4922°N, 73.1654°W)
Time: 12:44:24
(UTC-04:00)

Cosmos 2360 Rocket - Visible Passes

Search period start: 21 July 2017 00:00
Search period end: 31 July 2017 00:00
Orbit: 834 x 845 km, 71.0° (Epoch: 21 July)

Date Brightness Start Highest point End Pass type
(mag) Time Alt. Az. Time Alt. Az. Time Alt. Az.
21 Jul 4.1 02:47:34 11° SE 02:51:16 20° E 02:55:19 10° NE visible
21 Jul 2.4 04:29:21 11° SW 04:34:45 62° WNW 04:40:22 10° NNE visible
22 Jul 4.2 02:32:33 13° SE 02:35:38 19° E 02:39:30 10° NE visible
22 Jul 2.3 04:14:20 15° SW 04:19:03 66° WNW 04:24:42 10° NNE visible
23 Jul 4.2 02:17:29 14° SE 02:20:01 18° E 02:23:41 10° ENE visible
23 Jul 2.3 03:59:16 19° SW 04:03:22 70° WNW 04:09:02 10° NNE visible
24 Jul 4.2 02:02:23 14° ESE 02:04:22 17° E 02:07:50 10° ENE visible
24 Jul 2.2 03:44:09 24° SW 03:47:41 74° WNW 03:53:22 10° NNE visible
25 Jul 4.2 01:47:14 14° ESE 01:48:45 16° E 01:51:59 10° ENE visible
25 Jul 2.2 03:29:01 29° SSW 03:32:00 79° WNW 03:37:41 10° NNE visible
26 Jul 4.2 01:32:04 14° ESE 01:33:07 15° E 01:36:05 10° ENE visible
26 Jul 2.1 03:13:50 35° SSW 03:16:20 83° WNW 03:22:01 10° NNE visible
26 Jul 4.1 04:57:42 10° W 05:01:14 17° NW 05:04:47 10° N visible
27 Jul 4.3 01:16:52 13° ESE 01:17:30 14° E 01:20:09 10° ENE visible
27 Jul 2.1 02:58:38 42° SSW 03:00:39 88° WNW 03:06:21 10° NNE visible
27 Jul 4.1 04:41:48 10° W 04:45:30 17° NW 04:49:12 10° N visible
28 Jul 4.3 01:01:37 13° E 01:01:53 13° E 01:04:10 10° ENE visible
28 Jul 2.1 02:43:24 50° SSW 02:44:59 87° ESE 02:50:40 10° NNE visible
28 Jul 4.0 04:25:55 10° W 04:29:46 18° NW 04:33:37 10° N visible
29 Jul 4.4 00:46:22 12° E 00:46:22 12° E 00:48:06 10° ENE visible
29 Jul 2.1 02:28:08 57° S 02:29:18 82° ESE 02:34:59 10° NNE visible
29 Jul 4.0 04:10:03 10° W 04:14:02 19° NW 04:18:01 10° N visible
30 Jul 4.5 00:31:04 11° E 00:31:04 11° E 00:31:52 10° E visible
30 Jul 2.1 02:12:50 65° S 02:13:38 78° ESE 02:19:18 10° NNE visible
30 Jul 4.0 03:54:36 11° W 03:58:18 20° NW 04:02:25 10° N visible
